Terminal Aerodrome Forecast
Issued by NWS

Home | Current Version | Previous Version | Text Only | Print | Product List | Glossary On
Versions: 1 2 3 4 5 6 7 8 9 10 11 12 13 14 15 16 17 18 19 20 21 22 23 24 25 26 27 28 29
000
FTUS42 KCAE 062058 AAA
TAFCUB
TAF AMD
KCUB 062058Z 0621/0718 31008G15KT P6SM VCSH SCT045 BKN060
     FM062300 30005KT P6SM FEW060
     FM071600 29010G16KT P6SM SCT050=

USA.gov is the U.S. government's official web portal to all federal, state and local government web resources and services.